Tracking 20626 objects as of 8-Apr-2020
HD Live streaming from Space Station
objects crossing your sky now

SUCHAI

Track SUCHAI now!
10-day predictions
SUCHAI is classified as:


NORAD ID: 42788
Int'l Code: 2017-036Z
Perigee: 495.5 km
Apogee: 508.8 km
Inclination: 97.3 °
Period: 94.5 minutes
Semi major axis: 6873 km
RCS: Unknown
Launch date: June 23, 2017
Source: Chile (CHLE)
Launch site: SRIHARIKOTA (SRI)

Uplink (MHz):
Downlink (MHz): 437.225
Beacon (MHz): 437.229
Mode: CW
Call sign: SUCHAI
Status: Inactive

aabbcc
Your satellite tracking list
Your tracking list is empty




NASA's NSSDC Master Catalog

Two Line Element Set (TLE):
1 42788U 17036Z   20099.39667208  .00001213  00000-0  53554-4 0  9990
2 42788  97.3103 155.7369 0009675 272.3985  87.6145 15.23586797155211
Source of the keplerian elements: AMSAT